Location: Hungerford
(51.4167°N, 1.5167°W)
Time: 04:15:25
(UTC+00:00)

CREW DRAGON DEMO-1 DEB - Pass Details

Date: 18 September 2020
Orbit: 362 x 365 km, 51.6° (Epoch: 20 October)

Event Time Altitude Azimuth Distance (km) Brightness Sun altitude
Rises 20:10:50 0° 278° (W) 2,201 8.0 -18.5°
Reaches altitude 10° 20:12:52 10° 278° (W) 1,354 6.7 -18.8°
Enters shadow 20:15:43 78° 259° (WSW) 378 2.8 -19.2°
